| time (UTC) | temp F | wind direction | speed MPH | gust MPH | rain 1hr in | rain 24hr in | rain mn in | humidity % | barometer mb |
| 20260510081203 | 65 | 45 | 4.0 | 8.0 | 0.00 | 0.00 | 0.00 | 83 | 1014.3 |
| 20260510080803 | 65 | 43 | 4.0 | 8.0 | 0.00 | 0.00 | 0.00 | 82 | 1014.3 |
| 20260510080403 | 65 | 39 | 3.0 | 6.0 | 0.00 | 0.00 | 0.00 | 82 | 1014.2 |
| 20260510080003 | 65 | 34 | 3.0 | 6.0 | 0.00 | 0.00 | 0.00 | 82 | 1014.1 |
| 20260510075603 | 65 | 32 | 3.0 | 4.0 | 0.00 | 0.00 | 0.00 | 83 | 1014.0 |
| 20260510075203 | 65 | 30 | 3.0 | 6.0 | 0.00 | 0.00 | 0.00 | 83 | 1014.1 |
| 20260510074803 | 64 | 26 | 3.0 | 6.0 | 0.00 | 0.00 | 0.00 | 83 | 1014.2 |
| 20260510074403 | 64 | 32 | 3.0 | 6.0 | 0.00 | 0.00 | 0.00 | 83 | 1014.1 |
| 20260510074003 | 64 | 27 | 4.0 | 7.0 | 0.00 | 0.00 | 0.00 | 83 | 1014.1 |
| 20260510073603 | 64 | 32 | 4.0 | 7.0 | 0.00 | 0.00 | 0.00 | 83 | 1014.2 |
| 20260510073203 | 64 | 27 | 4.0 | 7.0 | 0.00 | 0.00 | 0.00 | 83 | 1014.1 |
| 20260510073013 | 64 | 19 | 4.0 | 6.0 | 0.00 | 0.00 | 0.00 | 85 | 1014.1 |
| 20260510072617 | 64 | 7 | 4.0 | 5.0 | 0.00 | 0.00 | 0.00 | 84 | 1014.1 |
| 20260510072003 | 64 | 7 | 3.0 | 6.0 | 0.00 | 0.00 | 0.00 | 84 | 1014.2 |
| 20260510071603 | 63 | 8 | 3.0 | 6.0 | 0.00 | 0.00 | 0.00 | 84 | 1014.2 |
| 20260510071415 | 63 | 6 | 3.0 | 4.0 | 0.00 | 0.00 | 0.00 | 84 | 1014.1 |
| 20260510070803 | 63 | 4 | 3.0 | 6.0 | 0.00 | 0.00 | 0.00 | 85 | 1014.1 |
| 20260510070403 | 63 | 5 | 3.0 | 6.0 | 0.00 | 0.00 | 0.00 | 85 | 1014.2 |
| 20260510070004 | 63 | 10 | 3.0 | 4.0 | 0.00 | 0.00 | 0.00 | 85 | 1014.1 |
| 20260510065603 | 63 | 8 | 3.0 | 4.0 | 0.00 | 0.00 | 0.00 | 85 | 1014.1 |
| 20260510065203 | 63 | 12 | 2.0 | 4.0 | 0.00 | 0.00 | 0.00 | 85 | 1014.1 |
| 20260510064803 | 62 | 9 | 2.0 | 4.0 | 0.00 | 0.00 | 0.00 | 84 | 1014.1 |
| 20260510064403 | 62 | 3 | 2.0 | 3.0 | 0.00 | 0.00 | 0.00 | 85 | 1014.1 |
| 20260510064003 | 62 | 360 | 2.0 | 3.0 | 0.00 | 0.00 | 0.00 | 85 | 1014.1 |
| 20260510063603 | 62 | 359 | 1.0 | 3.0 | 0.00 | 0.00 | 0.00 | 84 | 1014.1 |
| 20260510063203 | 62 | 6 | 0.0 | 3.0 | 0.00 | 0.00 | 0.00 | 84 | 1014.5 |
| 20260510062803 | 62 | 0 | 0.0 | 0.0 | 0.00 | 0.00 | 0.00 | 84 | 1014.4 |
| 20260510062403 | 62 | 0 | 0.0 | 0.0 | 0.00 | 0.00 | 0.00 | 85 | 1014.5 |
| 20260510062003 | 62 | 0 | 0.0 | 0.0 | 0.00 | 0.00 | 0.00 | 85 | 1014.4 |
| 20260510061603 | 61 | 22 | 0.0 | 1.0 | 0.00 | 0.00 | 0.00 | 86 | 1014.2 |
| 20260510061203 | 61 | 22 | 1.0 | 2.0 | 0.00 | 0.00 | 0.00 | 85 | 1014.3 |
| 20260510060803 | 61 | 22 | 1.0 | 2.0 | 0.00 | 0.00 | 0.00 | 85 | 1014.5 |
| 20260510060403 | 61 | 22 | 0.0 | 2.0 | 0.00 | 0.00 | 0.00 | 85 | 1014.3 |
| 20260510060214 | 61 | 22 | 0.0 | 1.0 | 0.00 | 0.00 | 0.00 | 84 | 1014.4 |
| 20260510055603 | 61 | 20 | 0.0 | 1.0 | 0.00 | 0.00 | 0.00 | 85 | 1014.3 |
| 20260510055203 | 61 | 20 | 0.0 | 1.0 | 0.00 | 0.00 | 0.00 | 84 | 1014.4 |
| 20260510054803 | 61 | 20 | 0.0 | 1.0 | 0.00 | 0.00 | 0.00 | 85 | 1014.5 |
| 20260510054403 | 61 | 20 | 0.0 | 1.0 | 0.00 | 0.00 | 0.00 | 85 | 1014.4 |
| 20260510054003 | 61 | 20 | 0.0 | 1.0 | 0.00 | 0.00 | 0.00 | 84 | 1014.3 |
| 20260510053603 | 61 | 21 | 0.0 | 1.0 | 0.00 | 0.00 | 0.00 | 84 | 1014.3 |
| 20260510053203 | 61 | 0 | 0.0 | 0.0 | 0.00 | 0.00 | 0.00 | 84 | 1014.2 |
| 20260510052803 | 60 | 21 | 0.0 | 1.0 | 0.00 | 0.00 | 0.00 | 84 | 1014.2 |
| 20260510052403 | 60 | 21 | 0.0 | 1.0 | 0.00 | 0.00 | 0.00 | 84 | 1014.0 |
| 20260510052003 | 60 | 21 | 0.0 | 1.0 | 0.00 | 0.00 | 0.00 | 84 | 1014.2 |
| 20260510051603 | 60 | 6 | 1.0 | 2.0 | 0.00 | 0.00 | 0.00 | 84 | 1014.0 |
| 20260510051417 | 60 | 2 | 1.0 | 3.0 | 0.00 | 0.00 | 0.00 | 85 | 1014.2 |
| 20260510050803 | 60 | 359 | 1.0 | 3.0 | 0.00 | 0.00 | 0.00 | 84 | 1014.0 |
| 20260510050403 | 60 | 4 | 1.0 | 4.0 | 0.00 | 0.00 | 0.00 | 84 | 1014.1 |
| 20260510050004 | 59 | 5 | 1.0 | 4.0 | 0.00 | 0.00 | 0.00 | 85 | 1014.0 |
| 20260510045603 | 59 | 3 | 2.0 | 4.0 | 0.00 | 0.00 | 0.00 | 85 | 1014.0 |
| 20260510045414 | 59 | 4 | 2.0 | 3.0 | 0.00 | 0.00 | 0.00 | 85 | 1014.1 |
| 20260510044803 | 58 | 8 | 2.0 | 4.0 | 0.00 | 0.00 | 0.00 | 85 | 1014.1 |
| 20260510044618 | 58 | 10 | 2.0 | 4.0 | 0.00 | 0.00 | 0.00 | 85 | 1014.1 |
| 20260510044003 | 58 | 5 | 2.0 | 4.0 | 0.00 | 0.00 | 0.00 | 85 | 1014.0 |
| 20260510043603 | 58 | 2 | 2.0 | 3.0 | 0.00 | 0.00 | 0.00 | 85 | 1014.0 |
| 20260510043203 | 58 | 360 | 2.0 | 3.0 | 0.00 | 0.00 | 0.00 | 85 | 1014.1 |
| 20260510042803 | 58 | 360 | 2.0 | 4.0 | 0.00 | 0.00 | 0.00 | 85 | 1014.2 |
| 20260510042403 | 58 | 359 | 2.0 | 4.0 | 0.00 | 0.00 | 0.00 | 85 | 1014.1 |
| 20260510042003 | 58 | 2 | 2.0 | 4.0 | 0.00 | 0.00 | 0.00 | 84 | 1014.1 |
| 20260510041603 | 58 | 7 | 2.0 | 3.0 | 0.00 | 0.00 | 0.00 | 84 | 1014.1 |
| 20260510041412 | 58 | 9 | 1.0 | 3.0 | 0.00 | 0.00 | 0.00 | 85 | 1014.0 |
| 20260510040803 | 58 | 14 | 1.0 | 3.0 | 0.00 | 0.00 | 0.00 | 86 | 1014.3 |
| 20260510040616 | 58 | 11 | 1.0 | 3.0 | 0.00 | 0.00 | 0.00 | 86 | 1014.2 |
| 20260510040003 | 58 | 7 | 2.0 | 3.0 | 0.00 | 0.00 | 0.00 | 87 | 1014.4 |
| 20260510035603 | 57 | 5 | 2.0 | 3.0 | 0.00 | 0.00 | 0.00 | 87 | 1014.2 |
| 20260510035203 | 57 | 5 | 1.0 | 3.0 | 0.00 | 0.00 | 0.00 | 89 | 1014.3 |
| 20260510034803 | 57 | 1 | 0.0 | 2.0 | 0.00 | 0.00 | 0.00 | 90 | 1014.3 |
| 20260510034613 | 57 | 1 | 0.0 | 1.0 | 0.00 | 0.00 | 0.00 | 90 | 1014.4 |
| 20260510034003 | 57 | 2 | 1.0 | 2.0 | 0.00 | 0.00 | 0.00 | 90 | 1014.3 |
| 20260510033817 | 57 | 3 | 1.0 | 2.0 | 0.00 | 0.00 | 0.00 | 90 | 1014.3 |
| 20260510033203 | 57 | 7 | 1.0 | 2.0 | 0.00 | 0.00 | 0.00 | 90 | 1014.3 |
| 20260510032803 | 57 | 8 | 0.0 | 2.0 | 0.00 | 0.00 | 0.00 | 91 | 1014.3 |
| 20260510032403 | 56 | 0 | 0.0 | 0.0 | 0.00 | 0.00 | 0.00 | 91 | 1014.5 |
| 20260510032003 | 56 | 0 | 0.0 | 0.0 | 0.00 | 0.00 | 0.00 | 90 | 1014.4 |
| 20260510031603 | 56 | 8 | 0.0 | 2.0 | 0.00 | 0.00 | 0.00 | 90 | 1014.4 |
| 20260510031203 | 56 | 8 | 0.0 | 2.0 | 0.00 | 0.00 | 0.00 | 90 | 1014.5 |
| 20260510030803 | 56 | 8 | 0.0 | 2.0 | 0.00 | 0.00 | 0.00 | 90 | 1014.5 |
| 20260510030403 | 56 | 8 | 0.0 | 2.0 | 0.00 | 0.00 | 0.00 | 90 | 1014.6 |
| 20260510030003 | 56 | 8 | 1.0 | 2.0 | 0.00 | 0.00 | 0.00 | 90 | 1014.4 |
| 20260510025603 | 55 | 8 | 1.0 | 2.0 | 0.00 | 0.00 | 0.00 | 90 | 1014.5 |
| 20260510025203 | 55 | 2 | 1.0 | 3.0 | 0.00 | 0.00 | 0.00 | 90 | 1014.6 |
| 20260510025014 | 55 | 1 | 1.0 | 3.0 | 0.00 | 0.00 | 0.00 | 90 | 1014.6 |
| 20260510024403 | 55 | 347 | 0.0 | 3.0 | 0.00 | 0.00 | 0.00 | 90 | 1014.7 |
| 20260510024213 | 55 | 0 | 0.0 | 0.0 | 0.00 | 0.00 | 0.00 | 90 | 1014.6 |
| 20260510023812 | 55 | 0 | 0.0 | 0.0 | 0.00 | 0.00 | 0.00 | 90 | 1014.6 |
| 20260510023203 | 55 | 0 | 0.0 | 0.0 | 0.00 | 0.00 | 0.00 | 90 | 1014.8 |
| 20260510022803 | 55 | 0 | 0.0 | 0.0 | 0.00 | 0.00 | 0.00 | 90 | 1014.8 |
| 20260510022403 | 55 | 0 | 0.0 | 0.0 | 0.00 | 0.00 | 0.00 | 89 | 1014.8 |
| 20260510022003 | 55 | 0 | 0.0 | 0.0 | 0.00 | 0.00 | 0.00 | 89 | 1014.9 |
| 20260510021603 | 55 | 0 | 0.0 | 0.0 | 0.00 | 0.00 | 0.00 | 89 | 1015.1 |
| 20260510021203 | 55 | 329 | 0.0 | 1.0 | 0.00 | 0.00 | 0.00 | 88 | 1014.9 |
| 20260510020803 | 55 | 329 | 0.0 | 1.0 | 0.00 | 0.00 | 0.00 | 88 | 1015.1 |
| 20260510020403 | 56 | 329 | 0.0 | 1.0 | 0.00 | 0.00 | 0.00 | 88 | 1015.0 |
| 20260510020217 | 56 | 0 | 0.0 | 0.0 | 0.00 | 0.00 | 0.00 | 88 | 1014.9 |
| 20260510015603 | 56 | 0 | 0.0 | 0.0 | 0.00 | 0.00 | 0.00 | 88 | 1015.1 |
| 20260510015203 | 56 | 0 | 0.0 | 0.0 | 0.00 | 0.00 | 0.00 | 88 | 1015.1 |
| 20260510015015 | 56 | 0 | 0.0 | 0.0 | 0.00 | 0.00 | 0.00 | 88 | 1015.1 |
| 20260510014403 | 56 | 0 | 0.0 | 0.0 | 0.00 | 0.00 | 0.00 | 88 | 1015.1 |
| 20260510014003 | 56 | 0 | 0.0 | 0.0 | 0.00 | 0.00 | 0.00 | 88 | 1015.2 |
| 20260510013603 | 56 | 0 | 0.0 | 0.0 | 0.00 | 0.00 | 0.00 | 87 | 1015.0 |
| 20260510013203 | 57 | 0 | 0.0 | 0.0 | 0.00 | 0.00 | 0.00 | 87 | 1015.2 |
| 20260510012803 | 57 | 0 | 0.0 | 0.0 | 0.00 | 0.00 | 0.00 | 87 | 1015.3 |
| 20260510012403 | 57 | 0 | 0.0 | 0.0 | 0.00 | 0.00 | 0.00 | 86 | 1015.2 |
| 20260510012003 | 57 | 0 | 0.0 | 0.0 | 0.00 | 0.00 | 0.00 | 85 | 1015.1 |
| 20260510011815 | 57 | 0 | 0.0 | 0.0 | 0.00 | 0.00 | 0.00 | 85 | 1015.1 |
| 20260510011203 | 58 | 0 | 0.0 | 0.0 | 0.00 | 0.00 | 0.00 | 85 | 1015.3 |
| 20260510011014 | 58 | 0 | 0.0 | 0.0 | 0.00 | 0.00 | 0.00 | 85 | 1015.2 |
| 20260510010403 | 58 | 0 | 0.0 | 0.0 | 0.00 | 0.00 | 0.00 | 85 | 1015.3 |
| 20260510010004 | 58 | 1 | 0.0 | 1.0 | 0.00 | 0.00 | 0.00 | 84 | 1015.4 |
| 20260510005603 | 58 | 1 | 0.0 | 1.0 | 0.00 | 0.00 | 0.00 | 84 | 1015.4 |
| 20260510005203 | 58 | 7 | 0.0 | 1.0 | 0.00 | 0.00 | 0.00 | 85 | 1015.1 |
| 20260510004803 | 58 | 11 | 1.0 | 3.0 | 0.00 | 0.00 | 0.00 | 85 | 1015.1 |
| 20260510004403 | 58 | 14 | 1.0 | 3.0 | 0.00 | 0.00 | 0.00 | 85 | 1015.2 |
| 20260510004003 | 58 | 16 | 1.0 | 3.0 | 0.00 | 0.00 | 0.00 | 85 | 1015.2 |
| 20260510003603 | 57 | 22 | 0.0 | 2.0 | 0.00 | 0.00 | 0.00 | 85 | 1015.2 |
| 20260510003203 | 57 | 0 | 0.0 | 0.0 | 0.00 | 0.00 | 0.00 | 85 | 1015.3 |
| 20260510002803 | 58 | 0 | 0.0 | 0.0 | 0.00 | 0.00 | 0.00 | 85 | 1015.3 |
| 20260510002403 | 57 | 0 | 0.0 | 0.0 | 0.00 | 0.00 | 0.00 | 85 | 1015.3 |
| 20260510002003 | 57 | 0 | 0.0 | 0.0 | 0.00 | 0.00 | 0.00 | 85 | 1015.4 |
| 20260510001603 | 57 | 0 | 0.0 | 0.0 | 0.00 | 0.00 | 0.00 | 85 | 1015.5 |
| 20260510001415 | 57 | 0 | 0.0 | 0.0 | 0.00 | 0.00 | 0.00 | 84 | 1015.5 |
| 20260510001014 | 58 | 0 | 0.0 | 0.0 | 0.00 | 0.00 | 0.00 | 84 | 1015.5 |
| 20260510000403 | 58 | 0 | 0.0 | 0.0 | 0.00 | 0.00 | 0.00 | 85 | 1015.4 |
| 20260510000004 | 58 | 0 | 0.0 | 0.0 | 0.00 | 0.00 | 0.00 | 84 | 1015.4 |
| 20260509235603 | 58 | 0 | 0.0 | 0.0 | 0.00 | 0.00 | 0.00 | 83 | 1015.5 |
| 20260509235203 | 58 | 0 | 0.0 | 0.0 | 0.00 | 0.00 | 0.00 | 83 | 1015.5 |
| 20260509235016 | 58 | 0 | 0.0 | 0.0 | 0.00 | 0.00 | 0.00 | 83 | 1015.5 |
| 20260509234616 | 58 | 0 | 0.0 | 0.0 | 0.00 | 0.00 | 0.00 | 83 | 1015.7 |
| 20260509234003 | 58 | 0 | 0.0 | 0.0 | 0.00 | 0.00 | 0.00 | 82 | 1015.8 |
| 20260509233603 | 58 | 0 | 0.0 | 0.0 | 0.00 | 0.00 | 0.00 | 82 | 1015.5 |
| 20260509233203 | 59 | 0 | 0.0 | 0.0 | 0.00 | 0.00 | 0.00 | 82 | 1015.6 |
| 20260509232803 | 58 | 0 | 0.0 | 0.0 | 0.00 | 0.00 | 0.00 | 83 | 1015.8 |
| 20260509232612 | 58 | 0 | 0.0 | 0.0 | 0.00 | 0.00 | 0.00 | 83 | 1015.6 |
| 20260509232003 | 59 | 0 | 0.0 | 0.0 | 0.00 | 0.00 | 0.00 | 82 | 1015.8 |
| 20260509231603 | 59 | 0 | 0.0 | 0.0 | 0.00 | 0.00 | 0.00 | 83 | 1015.9 |
| 20260509231203 | 59 | 0 | 0.0 | 0.0 | 0.00 | 0.00 | 0.00 | 83 | 1015.8 |
| 20260509230803 | 58 | 0 | 0.0 | 0.0 | 0.00 | 0.00 | 0.00 | 83 | 1015.7 |
| 20260509230403 | 59 | 0 | 0.0 | 0.0 | 0.00 | 0.00 | 0.00 | 83 | 1015.9 |
| 20260509230214 | 59 | 0 | 0.0 | 0.0 | 0.00 | 0.00 | 0.00 | 83 | 1015.8 |
| 20260509225603 | 58 | 0 | 0.0 | 0.0 | 0.00 | 0.00 | 0.00 | 83 | 1015.9 |
| 20260509225203 | 58 | 0 | 0.0 | 0.0 | 0.00 | 0.00 | 0.00 | 83 | 1015.8 |
| 20260509224803 | 59 | 0 | 0.0 | 0.0 | 0.00 | 0.00 | 0.00 | 83 | 1015.8 |
| 20260509224403 | 59 | 0 | 0.0 | 0.0 | 0.00 | 0.00 | 0.00 | 82 | 1015.8 |
| 20260509224216 | 59 | 0 | 0.0 | 0.0 | 0.00 | 0.00 | 0.00 | 82 | 1015.9 |
| 20260509223603 | 59 | 0 | 0.0 | 0.0 | 0.00 | 0.00 | 0.00 | 82 | 1015.9 |
| 20260509223203 | 59 | 0 | 0.0 | 0.0 | 0.00 | 0.00 | 0.00 | 81 | 1016.0 |
| 20260509222803 | 60 | 0 | 0.0 | 0.0 | 0.00 | 0.00 | 0.00 | 80 | 1015.9 |
| 20260509222403 | 60 | 0 | 0.0 | 0.0 | 0.00 | 0.00 | 0.00 | 80 | 1015.9 |
| 20260509222217 | 60 | 0 | 0.0 | 0.0 | 0.00 | 0.00 | 0.00 | 80 | 1015.8 |
| 20260509221603 | 60 | 0 | 0.0 | 0.0 | 0.00 | 0.00 | 0.00 | 79 | 1015.7 |
| 20260509221203 | 60 | 0 | 0.0 | 0.0 | 0.00 | 0.00 | 0.00 | 79 | 1015.9 |
| 20260509220803 | 60 | 0 | 0.0 | 0.0 | 0.00 | 0.00 | 0.00 | 78 | 1015.6 |
| 20260509220403 | 61 | 0 | 0.0 | 0.0 | 0.00 | 0.00 | 0.00 | 77 | 1015.7 |
| 20260509220004 | 60 | 0 | 0.0 | 0.0 | 0.00 | 0.00 | 0.00 | 78 | 1015.7 |
| 20260509215603 | 61 | 0 | 0.0 | 0.0 | 0.00 | 0.00 | 0.00 | 77 | 1015.9 |
| 20260509215203 | 61 | 24 | 0.0 | 1.0 | 0.00 | 0.00 | 0.00 | 77 | 1015.7 |
| 20260509215012 | 61 | 24 | 0.0 | 1.0 | 0.00 | 0.00 | 0.00 | 76 | 1015.8 |
| 20260509214403 | 61 | 22 | 1.0 | 2.0 | 0.00 | 0.00 | 0.00 | 77 | 1015.8 |
| 20260509214216 | 61 | 22 | 1.0 | 2.0 | 0.00 | 0.00 | 0.00 | 77 | 1015.7 |
| 20260509213603 | 61 | 12 | 1.0 | 2.0 | 0.00 | 0.00 | 0.00 | 76 | 1015.8 |
| 20260509213415 | 61 | 2 | 1.0 | 3.0 | 0.00 | 0.00 | 0.00 | 76 | 1015.8 |
| 20260509212803 | 62 | 7 | 2.0 | 4.0 | 0.00 | 0.00 | 0.00 | 75 | 1015.7 |
| 20260509212614 | 62 | 8 | 2.0 | 4.0 | 0.00 | 0.00 | 0.00 | 75 | 1015.8 |
| 20260509212003 | 62 | 48 | 0.0 | 2.0 | 0.00 | 0.00 | 0.00 | 74 | 1016.0 |
| 20260509211603 | 62 | 67 | 0.0 | 2.0 | 0.00 | 0.00 | 0.00 | 73 | 1015.8 |
| 20260509211203 | 61 | 56 | 1.0 | 3.0 | 0.00 | 0.00 | 0.00 | 74 | 1015.9 |
| 20260509210803 | 60 | 43 | 2.0 | 4.0 | 0.00 | 0.00 | 0.00 | 77 | 1015.8 |
| 20260509210403 | 60 | 37 | 2.0 | 4.0 | 0.00 | 0.00 | 0.00 | 77 | 1015.8 |
| 20260509210003 | 62 | 28 | 1.0 | 4.0 | 0.00 | 0.00 | 0.00 | 74 | 1015.8 |
| 20260509205603 | 63 | 0 | 0.0 | 0.0 | 0.00 | 0.00 | 0.00 | 70 | 1015.5 |
| 20260509205203 | 63 | 0 | 0.0 | 0.0 | 0.00 | 0.00 | 0.00 | 69 | 1015.6 |
| 20260509205013 | 63 | 0 | 0.0 | 0.0 | 0.00 | 0.00 | 0.00 | 68 | 1015.5 |
| 20260509204403 | 64 | 200 | 0.0 | 1.0 | 0.00 | 0.00 | 0.00 | 67 | 1015.7 |
| 20260509204003 | 64 | 200 | 1.0 | 2.0 | 0.00 | 0.00 | 0.00 | 66 | 1015.6 |
| 20260509203603 | 64 | 201 | 1.0 | 2.0 | 0.00 | 0.00 | 0.00 | 66 | 1015.7 |
| 20260509203203 | 64 | 203 | 2.0 | 3.0 | 0.00 | 0.00 | 0.00 | 66 | 1015.5 |
| 20260509202803 | 64 | 200 | 2.0 | 3.0 | 0.00 | 0.00 | 0.00 | 66 | 1015.5 |
| 20260509202403 | 64 | 195 | 1.0 | 2.0 | 0.00 | 0.00 | 0.00 | 67 | 1015.5 |
| 20260509202003 | 64 | 177 | 0.0 | 2.0 | 0.00 | 0.00 | 0.00 | 68 | 1015.6 |
| 20260509201603 | 63 | 0 | 0.0 | 0.0 | 0.00 | 0.00 | 0.00 | 70 | 1015.6 |
| 20260509201203 | 63 | 0 | 0.0 | 0.0 | 0.00 | 0.00 | 0.00 | 70 | 1015.4 |
| 20260509200803 | 64 | 0 | 0.0 | 0.0 | 0.00 | 0.00 | 0.00 | 70 | 1015.4 |
| 20260509200616 | 64 | 0 | 0.0 | 0.0 | 0.00 | 0.00 | 0.00 | 70 | 1015.5 |
| 20260509200004 | 64 | 0 | 0.0 | 0.0 | 0.00 | 0.00 | 0.00 | 70 | 1015.4 |
| 20260509195603 | 64 | 0 | 0.0 | 0.0 | 0.00 | 0.00 | 0.00 | 69 | 1015.3 |
| 20260509195414 | 64 | 0 | 0.0 | 0.0 | 0.00 | 0.00 | 0.00 | 69 | 1015.3 |
| 20260509194803 | 64 | 0 | 0.0 | 0.0 | 0.00 | 0.00 | 0.00 | 69 | 1015.3 |
| 20260509194403 | 64 | 0 | 0.0 | 0.0 | 0.00 | 0.00 | 0.00 | 69 | 1015.4 |
| 20260509194003 | 65 | 162 | 0.0 | 1.0 | 0.00 | 0.00 | 0.00 | 69 | 1015.3 |
| 20260509193603 | 65 | 158 | 0.0 | 1.0 | 0.00 | 0.00 | 0.00 | 68 | 1015.2 |
| 20260509193203 | 65 | 153 | 1.0 | 2.0 | 0.00 | 0.00 | 0.00 | 68 | 1015.2 |
| 20260509193016 | 65 | 152 | 1.0 | 2.0 | 0.00 | 0.00 | 0.00 | 68 | 1015.2 |
| 20260509192403 | 66 | 148 | 1.0 | 2.0 | 0.00 | 0.00 | 0.00 | 67 | 1015.1 |
| 20260509192003 | 66 | 155 | 1.0 | 3.0 | 0.00 | 0.00 | 0.00 | 66 | 1014.9 |
| 20260509191603 | 66 | 158 | 1.0 | 3.0 | 0.00 | 0.00 | 0.00 | 66 | 1015.0 |
| 20260509191203 | 66 | 156 | 2.0 | 3.0 | 0.00 | 0.00 | 0.00 | 67 | 1014.9 |
| 20260509190803 | 67 | 156 | 2.0 | 4.0 | 0.00 | 0.00 | 0.00 | 66 | 1014.9 |
| 20260509190403 | 67 | 155 | 2.0 | 4.0 | 0.00 | 0.00 | 0.00 | 65 | 1014.9 |
| 20260509190003 | 67 | 154 | 3.0 | 4.0 | 0.00 | 0.00 | 0.00 | 65 | 1014.8 |
| 20260509185603 | 68 | 150 | 3.0 | 6.0 | 0.00 | 0.00 | 0.00 | 65 | 1014.9 |
| 20260509185203 | 68 | 150 | 3.0 | 6.0 | 0.00 | 0.00 | 0.00 | 64 | 1014.7 |
| 20260509184803 | 68 | 152 | 3.0 | 4.0 | 0.00 | 0.00 | 0.00 | 64 | 1014.8 |
| 20260509184403 | 69 | 154 | 3.0 | 6.0 | 0.00 | 0.00 | 0.00 | 64 | 1014.7 |
| 20260509184003 | 69 | 150 | 3.0 | 6.0 | 0.00 | 0.00 | 0.00 | 63 | 1014.7 |
| 20260509183603 | 69 | 154 | 2.0 | 4.0 | 0.00 | 0.00 | 0.00 | 64 | 1014.7 |
| 20260509183203 | 69 | 155 | 2.0 | 4.0 | 0.00 | 0.00 | 0.00 | 65 | 1014.5 |
| 20260509182803 | 69 | 164 | 1.0 | 3.0 | 0.00 | 0.00 | 0.00 | 65 | 1014.5 |
| 20260509182403 | 69 | 162 | 0.0 | 2.0 | 0.00 | 0.00 | 0.00 | 65 | 1014.5 |
| 20260509182003 | 70 | 151 | 1.0 | 3.0 | 0.00 | 0.00 | 0.00 | 64 | 1014.4 |
| 20260509181603 | 70 | 146 | 1.0 | 3.0 | 0.00 | 0.00 | 0.00 | 64 | 1014.5 |
| 20260509181203 | 70 | 125 | 0.0 | 2.0 | 0.00 | 0.00 | 0.00 | 64 | 1014.4 |
| 20260509180803 | 71 | 114 | 0.0 | 2.0 | 0.00 | 0.00 | 0.00 | 64 | 1014.5 |
| 20260509180403 | 71 | 120 | 0.0 | 2.0 | 0.00 | 0.00 | 0.00 | 63 | 1014.3 |
| 20260509180003 | 71 | 109 | 0.0 | 2.0 | 0.00 | 0.00 | 0.00 | 63 | 1014.5 |
| 20260509175603 | 71 | 107 | 0.0 | 2.0 | 0.00 | 0.00 | 0.00 | 62 | 1014.4 |
| 20260509175203 | 72 | 147 | 1.0 | 2.0 | 0.00 | 0.00 | 0.00 | 61 | 1014.5 |
| 20260509174803 | 72 | 156 | 1.0 | 4.0 | 0.00 | 0.00 | 0.00 | 61 | 1014.6 |
| 20260509174403 | 72 | 160 | 2.0 | 4.0 | 0.00 | 0.00 | 0.00 | 60 | 1014.4 |
| 20260509174003 | 73 | 158 | 2.0 | 4.0 | 0.00 | 0.00 | 0.00 | 59 | 1014.5 |
| 20260509173603 | 73 | 153 | 2.0 | 4.0 | 0.00 | 0.00 | 0.00 | 58 | 1014.4 |
| 20260509173417 | 73 | 151 | 3.0 | 7.0 | 0.00 | 0.00 | 0.00 | 58 | 1014.5 |
| 20260509172803 | 74 | 149 | 3.0 | 7.0 | 0.00 | 0.00 | 0.00 | 55 | 1014.5 |
| 20260509172403 | 74 | 150 | 3.0 | 6.0 | 0.00 | 0.00 | 0.00 | 53 | 1014.6 |
| 20260509172003 | 75 | 155 | 4.0 | 7.0 | 0.00 | 0.00 | 0.00 | 52 | 1014.5 |
| 20260509171603 | 75 | 158 | 3.0 | 7.0 | 0.00 | 0.00 | 0.00 | 52 | 1014.5 |
| 20260509171203 | 75 | 155 | 3.0 | 7.0 | 0.00 | 0.00 | 0.00 | 52 | 1014.3 |
| 20260509170803 | 75 | 150 | 3.0 | 7.0 | 0.00 | 0.00 | 0.00 | 53 | 1014.4 |
| 20260509170613 | 75 | 153 | 3.0 | 7.0 | 0.00 | 0.00 | 0.00 | 53 | 1014.3 |
| 20260509170003 | 75 | 154 | 3.0 | 6.0 | 0.00 | 0.00 | 0.00 | 52 | 1014.5 |
| 20260509165603 | 75 | 156 | 4.0 | 6.0 | 0.00 | 0.00 | 0.00 | 51 | 1014.4 |
| 20260509165203 | 76 | 162 | 4.0 | 7.0 | 0.00 | 0.00 | 0.00 | 52 | 1014.4 |
| 20260509164803 | 76 | 165 | 5.0 | 9.0 | 0.00 | 0.00 | 0.00 | 51 | 1014.3 |
| 20260509164403 | 76 | 172 | 5.0 | 9.0 | 0.00 | 0.00 | 0.00 | 50 | 1014.5 |
| 20260509164003 | 76 | 173 | 4.0 | 9.0 | 0.00 | 0.00 | 0.00 | 51 | 1014.5 |
| 20260509163603 | 77 | 171 | 3.0 | 7.0 | 0.00 | 0.00 | 0.00 | 45 | 1014.5 |
| 20260509163203 | 77 | 179 | 4.0 | 7.0 | 0.00 | 0.00 | 0.00 | 43 | 1014.6 |
| 20260509162803 | 77 | 181 | 3.0 | 4.0 | 0.00 | 0.00 | 0.00 | 45 | 1014.5 |
| 20260509162403 | 77 | 167 | 3.0 | 6.0 | 0.00 | 0.00 | 0.00 | 47 | 1014.6 |
| 20260509162216 | 77 | 171 | 3.0 | 6.0 | 0.00 | 0.00 | 0.00 | 45 | 1014.4 |
| 20260509161816 | 77 | 174 | 4.0 | 6.0 | 0.00 | 0.00 | 0.00 | 46 | 1014.6 |
| 20260509161203 | 78 | 174 | 4.0 | 8.0 | 0.00 | 0.00 | 0.00 | 44 | 1014.5 |
| 20260509160803 | 78 | 193 | 4.0 | 8.0 | 0.00 | 0.00 | 0.00 | 45 | 1014.7 |
| 20260509160614 | 78 | 193 | 4.0 | 8.0 | 0.00 | 0.00 | 0.00 | 44 | 1014.7 |
| 20260509160003 | 78 | 181 | 4.0 | 7.0 | 0.00 | 0.00 | 0.00 | 45 | 1014.7 |
| 20260509155817 | 78 | 171 | 5.0 | 9.0 | 0.00 | 0.00 | 0.00 | 46 | 1014.7 |
| 20260509155417 | 77 | 171 | 5.0 | 9.0 | 0.00 | 0.00 | 0.00 | 45 | 1014.7 |
| 20260509154803 | 78 | 170 | 3.0 | 7.0 | 0.00 | 0.00 | 0.00 | 44 | 1014.9 |
| 20260509154616 | 78 | 165 | 3.0 | 5.0 | 0.00 | 0.00 | 0.00 | 44 | 1014.8 |
| 20260509154003 | 78 | 160 | 4.0 | 8.0 | 0.00 | 0.00 | 0.00 | 44 | 1014.6 |
| 20260509153603 | 78 | 156 | 4.0 | 8.0 | 0.00 | 0.00 | 0.00 | 44 | 1014.6 |
| 20260509153203 | 78 | 162 | 3.0 | 6.0 | 0.00 | 0.00 | 0.00 | 43 | 1014.5 |
| 20260509152803 | 78 | 172 | 3.0 | 9.0 | 0.00 | 0.00 | 0.00 | 42 | 1014.7 |
| 20260509152403 | 78 | 177 | 3.0 | 9.0 | 0.00 | 0.00 | 0.00 | 43 | 1014.8 |
| 20260509152217 | 78 | 177 | 3.0 | 9.0 | 0.00 | 0.00 | 0.00 | 43 | 1014.7 |
| 20260509151603 | 78 | 212 | 4.0 | 6.0 | 0.00 | 0.00 | 0.00 | 42 | 1014.7 |
| 20260509151203 | 78 | 199 | 5.0 | 11.0 | 0.00 | 0.00 | 0.00 | 44 | 1014.7 |
| 20260509150803 | 78 | 189 | 5.0 | 11.0 | 0.00 | 0.00 | 0.00 | 44 | 1014.9 |
| 20260509150403 | 78 | 189 | 4.0 | 11.0 | 0.00 | 0.00 | 0.00 | 44 | 1015.0 |
| 20260509150004 | 78 | 174 | 4.0 | 9.0 | 0.00 | 0.00 | 0.00 | 44 | 1015.0 |
| 20260509145813 | 78 | 168 | 4.0 | 9.0 | 0.00 | 0.00 | 0.00 | 44 | 1014.9 |
| 20260509145203 | 78 | 175 | 5.0 | 10.0 | 0.00 | 0.00 | 0.00 | 44 | 1015.0 |
| 20260509144616 | 78 | 163 | 4.0 | 9.0 | 0.00 | 0.00 | 0.00 | 46 | 1015.1 |
| 20260509144003 | 78 | 162 | 3.0 | 9.0 | 0.00 | 0.00 | 0.00 | 45 | 1015.2 |
| 20260509143603 | 78 | 171 | 5.0 | 9.0 | 0.00 | 0.00 | 0.00 | 42 | 1015.3 |
| 20260509143203 | 78 | 183 | 4.0 | 9.0 | 0.00 | 0.00 | 0.00 | 43 | 1015.2 |
| 20260509142803 | 79 | 187 | 5.0 | 9.0 | 0.00 | 0.00 | 0.00 | 42 | 1015.2 |
| 20260509142613 | 79 | 190 | 5.0 | 9.0 | 0.00 | 0.00 | 0.00 | 43 | 1015.2 |
| 20260509142003 | 79 | 171 | 5.0 | 9.0 | 0.00 | 0.00 | 0.00 | 43 | 1015.2 |
| 20260509141603 | 79 | 171 | 4.0 | 9.0 | 0.00 | 0.00 | 0.00 | 43 | 1015.2 |
| 20260509141203 | 79 | 199 | 4.0 | 9.0 | 0.00 | 0.00 | 0.00 | 41 | 1015.3 |
| 20260509140803 | 79 | 207 | 4.0 | 9.0 | 0.00 | 0.00 | 0.00 | 41 | 1015.2 |
| 20260509140403 | 79 | 181 | 3.0 | 7.0 | 0.00 | 0.00 | 0.00 | 41 | 1015.1 |
| 20260509140214 | 79 | 165 | 3.0 | 8.0 | 0.00 | 0.00 | 0.00 | 40 | 1015.3 |
| 20260509135814 | 78 | 167 | 5.0 | 8.0 | 0.00 | 0.00 | 0.00 | 42 | 1015.3 |
| 20260509135203 | 79 | 163 | 5.0 | 11.0 | 0.00 | 0.00 | 0.00 | 42 | 1015.4 |
| 20260509134803 | 79 | 159 | 3.0 | 11.0 | 0.00 | 0.00 | 0.00 | 41 | 1015.3 |
| 20260509134403 | 80 | 147 | 2.0 | 4.0 | 0.00 | 0.00 | 0.00 | 40 | 1015.4 |
| 20260509134216 | 79 | 158 | 2.0 | 6.0 | 0.00 | 0.00 | 0.00 | 41 | 1015.4 |
| 20260509133816 | 78 | 167 | 4.0 | 8.0 | 0.00 | 0.00 | 0.00 | 41 | 1015.7 |
| 20260509133415 | 78 | 169 | 5.0 | 9.0 | 0.00 | 0.00 | 0.00 | 42 | 1015.6 |
| 20260509132803 | 78 | 159 | 6.0 | 13.0 | 0.00 | 0.00 | 0.00 | 43 | 1015.8 |
| 20260509132403 | 78 | 157 | 6.0 | 13.0 | 0.00 | 0.00 | 0.00 | 42 | 1015.6 |
| 20260509132213 | 79 | 158 | 5.0 | 10.0 | 0.00 | 0.00 | 0.00 | 41 | 1015.7 |
| 20260509131603 | 80 | 164 | 3.0 | 9.0 | 0.00 | 0.00 | 0.00 | 43 | 1015.5 |
| 20260509131203 | 79 | 177 | 3.0 | 8.0 | 0.00 | 0.00 | 0.00 | 45 | 1015.8 |
| 20260509130803 | 79 | 181 | 3.0 | 8.0 | 0.00 | 0.00 | 0.00 | 44 | 1015.9 |
| 20260509130403 | 79 | 162 | 4.0 | 7.0 | 0.00 | 0.00 | 0.00 | 44 | 1015.7 |
| 20260509130003 | 78 | 149 | 4.0 | 10.0 | 0.00 | 0.00 | 0.00 | 44 | 1015.7 |
| 20260509125814 | 78 | 144 | 4.0 | 10.0 | 0.00 | 0.00 | 0.00 | 44 | 1015.8 |
| 20260509125203 | 78 | 117 | 2.0 | 6.0 | 0.00 | 0.00 | 0.00 | 48 | 1015.8 |
| 20260509124803 | 79 | 174 | 2.0 | 7.0 | 0.00 | 0.00 | 0.00 | 46 | 1015.8 |
| 20260509124403 | 79 | 183 | 2.0 | 7.0 | 0.00 | 0.00 | 0.00 | 46 | 1015.9 |
| 20260509124003 | 78 | 155 | 3.0 | 7.0 | 0.00 | 0.00 | 0.00 | 48 | 1015.9 |
| 20260509123603 | 78 | 123 | 3.0 | 5.0 | 0.00 | 0.00 | 0.00 | 47 | 1015.8 |
| 20260509123203 | 78 | 132 | 4.0 | 6.0 | 0.00 | 0.00 | 0.00 | 47 | 1016.0 |
| 20260509122804 | 78 | 150 | 4.0 | 9.0 | 0.00 | 0.00 | 0.00 | 47 | 1015.7 |
| 20260509122403 | 78 | 166 | 3.0 | 9.0 | 0.00 | 0.00 | 0.00 | 48 | 1016.0 |
| 20260509122214 | 78 | 179 | 3.0 | 9.0 | 0.00 | 0.00 | 0.00 | 47 | 1015.8 |
| 20260509121603 | 78 | 171 | 4.0 | 7.0 | 0.00 | 0.00 | 0.00 | 46 | 1015.9 |
| 20260509121203 | 78 | 156 | 4.0 | 7.0 | 0.00 | 0.00 | 0.00 | 47 | 1016.0 |
| 20260509120803 | 78 | 163 | 4.0 | 7.0 | 0.00 | 0.00 | 0.00 | 48 | 1016.0 |
| 20260509120403 | 78 | 168 | 3.0 | 7.0 | 0.00 | 0.00 | 0.00 | 49 | 1016.1 |
| 20260509120003 | 78 | 190 | 2.0 | 7.0 | 0.00 | 0.00 | 0.00 | 49 | 1015.8 |
| 20260509115815 | 78 | 239 | 2.0 | 7.0 | 0.00 | 0.00 | 0.00 | 48 | 1015.9 |
| 20260509115414 | 78 | 237 | 2.0 | 4.0 | 0.00 | 0.00 | 0.00 | 48 | 1016.0 |
| 20260509114803 | 78 | 205 | 2.0 | 4.0 | 0.00 | 0.00 | 0.00 | 47 | 1016.4 |
| 20260509114403 | 78 | 35 | 2.0 | 4.0 | 0.00 | 0.00 | 0.00 | 47 | 1016.3 |
| 20260509114003 | 79 | 9 | 1.0 | 4.0 | 0.00 | 0.00 | 0.00 | 46 | 1016.4 |
| 20260509113603 | 80 | 289 | 2.0 | 6.0 | 0.00 | 0.00 | 0.00 | 45 | 1016.4 |
| 20260509113203 | 79 | 282 | 2.0 | 6.0 | 0.00 | 0.00 | 0.00 | 47 | 1016.4 |
| 20260509112803 | 79 | 314 | 2.0 | 6.0 | 0.00 | 0.00 | 0.00 | 48 | 1016.4 |
| 20260509112403 | 78 | 343 | 1.0 | 4.0 | 0.00 | 0.00 | 0.00 | 50 | 1016.4 |
| 20260509112214 | 78 | 336 | 1.0 | 3.0 | 0.00 | 0.00 | 0.00 | 51 | 1016.4 |
| 20260509111603 | 78 | 296 | 2.0 | 5.0 | 0.00 | 0.00 | 0.00 | 51 | 1016.4 |
| 20260509111203 | 78 | 272 | 4.0 | 24.0 | 0.00 | 0.00 | 0.00 | 49 | 1016.7 |
| 20260509110803 | 78 | 176 | 4.0 | 24.0 | 0.00 | 0.00 | 0.00 | 51 | 1016.5 |
| 20260509110403 | 77 | 136 | 2.0 | 6.0 | 0.00 | 0.00 | 0.00 | 52 | 1016.6 |
| 20260509110216 | 77 | 139 | 2.0 | 6.0 | 0.00 | 0.00 | 0.00 | 51 | 1016.7 |
| 20260509105816 | 77 | 145 | 2.0 | 6.0 | 0.00 | 0.00 | 0.00 | 50 | 1016.7 |
| 20260509105203 | 77 | 155 | 3.0 | 8.0 | 0.00 | 0.00 | 0.00 | 51 | 1016.7 |
| 20260509104803 | 77 | 178 | 3.0 | 8.0 | 0.00 | 0.00 | 0.00 | 50 | 1017.0 |
| 20260509104403 | 77 | 196 | 3.0 | 7.0 | 0.00 | 0.00 | 0.00 | 52 | 1017.0 |
| 20260509104003 | 76 | 135 | 3.0 | 7.0 | 0.00 | 0.00 | 0.00 | 52 | 1016.9 |
| 20260509103603 | 76 | 77 | 2.0 | 4.0 | 0.00 | 0.00 | 0.00 | 54 | 1016.9 |
| 20260509103203 | 77 | 73 | 1.0 | 4.0 | 0.00 | 0.00 | 0.00 | 51 | 1017.0 |
| 20260509102803 | 77 | 300 | 1.0 | 3.0 | 0.00 | 0.00 | 0.00 | 51 | 1017.1 |
| 20260509102616 | 77 | 289 | 1.0 | 4.0 | 0.00 | 0.00 | 0.00 | 50 | 1017.1 |
| 20260509102215 | 76 | 268 | 2.0 | 7.0 | 0.00 | 0.00 | 0.00 | 52 | 1017.0 |
| 20260509101603 | 75 | 223 | 3.0 | 8.0 | 0.00 | 0.00 | 0.00 | 54 | 1017.3 |
| 20260509101203 | 76 | 196 | 3.0 | 8.0 | 0.00 | 0.00 | 0.00 | 54 | 1017.2 |
| 20260509101013 | 76 | 185 | 2.0 | 8.0 | 0.00 | 0.00 | 0.00 | 54 | 1017.3 |
| 20260509100403 | 76 | 42 | 1.0 | 3.0 | 0.00 | 0.00 | 0.00 | 56 | 1017.1 |
| 20260509095603 | 77 | 152 | 2.0 | 3.0 | 0.00 | 0.00 | 0.00 | 52 | 1017.3 |
| 20260509095416 | 77 | 209 | 1.0 | 3.0 | 0.00 | 0.00 | 0.00 | 54 | 1017.1 |
| 20260509095015 | 78 | 294 | 1.0 | 3.0 | 0.00 | 0.00 | 0.00 | 53 | 1017.3 |
| 20260509094614 | 76 | 236 | 1.0 | 3.0 | 0.00 | 0.00 | 0.00 | 54 | 1017.4 |
| 20260509094003 | 75 | 137 | 1.0 | 3.0 | 0.00 | 0.00 | 0.00 | 57 | 1017.4 |
| 20260509093813 | 74 | 162 | 2.0 | 4.0 | 0.00 | 0.00 | 0.00 | 57 | 1017.4 |
| 20260509093203 | 74 | 230 | 2.0 | 4.0 | 0.00 | 0.00 | 0.00 | 56 | 1017.5 |
| 20260509092803 | 74 | 246 | 2.0 | 4.0 | 0.00 | 0.00 | 0.00 | 58 | 1017.5 |
| 20260509092403 | 74 | 241 | 3.0 | 4.0 | 0.00 | 0.00 | 0.00 | 58 | 1017.4 |
| 20260509092003 | 73 | 247 | 2.0 | 6.0 | 0.00 | 0.00 | 0.00 | 61 | 1017.5 |
| 20260509091603 | 73 | 254 | 2.0 | 6.0 | 0.00 | 0.00 | 0.00 | 59 | 1017.4 |
| 20260509091203 | 74 | 257 | 1.0 | 4.0 | 0.00 | 0.00 | 0.00 | 58 | 1017.6 |
| 20260509090803 | 73 | 231 | 2.0 | 6.0 | 0.00 | 0.00 | 0.00 | 60 | 1017.6 |
| 20260509090403 | 73 | 218 | 2.0 | 6.0 | 0.00 | 0.00 | 0.00 | 59 | 1017.7 |
| 20260509090212 | 74 | 220 | 2.0 | 6.0 | 0.00 | 0.00 | 0.00 | 58 | 1017.5 |
| 20260509085603 | 74 | 212 | 1.0 | 4.0 | 0.00 | 0.00 | 0.00 | 59 | 1017.7 |
| 20260509085203 | 74 | 224 | 1.0 | 3.0 | 0.00 | 0.00 | 0.00 | 57 | 1017.7 |
| 20260509084803 | 73 | 129 | 1.0 | 3.0 | 0.00 | 0.00 | 0.00 | 57 | 1017.6 |
| 20260509084403 | 72 | 104 | 1.0 | 3.0 | 0.00 | 0.00 | 0.00 | 60 | 1017.6 |
| 20260509084003 | 73 | 161 | 1.0 | 3.0 | 0.00 | 0.00 | 0.00 | 59 | 1017.7 |
| 20260509083813 | 72 | 218 | 1.0 | 5.0 | 0.00 | 0.00 | 0.00 | 59 | 1017.8 |
| 20260509083203 | 70 | 225 | 2.0 | 6.0 | 0.00 | 0.00 | 0.00 | 62 | 1017.5 |
| 20260509083017 | 71 | 227 | 2.0 | 6.0 | 0.00 | 0.00 | 0.00 | 61 | 1017.5 |
| 20260509082617 | 72 | 228 | 1.0 | 4.0 | 0.00 | 0.00 | 0.00 | 60 | 1017.8 |
| 20260509082003 | 72 | 231 | 1.0 | 3.0 | 0.00 | 0.00 | 0.00 | 60 | 1017.7 |
| 20260509081603 | 71 | 241 | 1.0 | 4.0 | 0.00 | 0.00 | 0.00 | 61 | 1017.7 |
| 20260509081415 | 71 | 248 | 2.0 | 4.0 | 0.00 | 0.00 | 0.00 | 61 | 1017.7 |